Date String (YYYY-MM-DD hh:mm:ss) UTC,Instrument flags,absolute air pressure of the measurement (hPa),sample flow rate (lpm),inlet stack bypass flow (lpm),air temperature of the measurement (°C),ambient temperature measured by the external sensor (°C),aerosol sample conditioner tube jacket temperature (°C),OPC LED temperature (°C),internal box temperature (°C),relative humidity of the measurement (%),span deviation,mass concentration of particles derived from Lorenz-Mie calculation of OPC scattering (μg/m³),mass concentration of particles derived from Lorenz-Mie calculation of OPC scattering (μg/m³),mass concentration of particles derived from Lorenz-Mie calculation of OPC scattering (μg/m³)
DateTimeUTC,F1_M11,P_M11,Q1_M11,Q2_M11,T1_M11,T2_M11,T3_M11,T4_M11,T5_M11,U1_M11,ZSPAN_M11,X0_M11,X2_M11,X1_M11
2023-12-04 15:00:00,SystemResetWarning,0826.2,5.00,000.00,018.9,018.2,000.0,027.2,020.1,15.5,0000.0,0001.18,0000.23,0000.11
2023-12-04 15:01:00,SystemResetWarning,0826.3,5.00,000.00,018.9,018.2,000.0,027.2,020.1,15.6,0000.0,0001.80,0000.26,0000.11
2023-12-04 15:02:00,SystemResetWarning,0826.2,5.01,000.00,018.9,018.2,000.0,027.2,020.1,15.5,0000.0,0003.02,0000.23,0000.11
2023-12-04 15:03:00,SystemResetWarning,0826.2,5.00,000.00,018.9,018.3,000.0,027.2,020.2,15.5,0000.0,0003.04,0000.24,0000.11
2023-12-04 15:04:00,SystemResetWarning,0826.3,5.00,000.00,018.9,018.3,000.0,027.2,020.2,15.3,0000.0,0003.40,0000.25,0000.11
2023-12-04 15:05:00,SystemResetWarning,0826.3,4.97,000.00,018.9,018.3,000.0,027.2,020.2,15.4,0000.0,0003.68,0000.28,0000.12
2023-12-04 15:06:00,SystemResetWarning,0826.4,5.00,000.00,019.0,018.3,000.0,027.2,020.2,15.2,0000.0,0005.42,0000.30,0000.12
2023-12-04 15:07:00,SystemResetWarning,0826.2,5.01,000.00,019.0,018.3,000.0,027.2,020.2,15.1,0000.0,0007.25,0000.34,0000.11
2023-12-04 15:08:00,SystemResetWarning,0826.0,5.01,000.00,019.0,018.4,000.0,027.2,020.2,15.0,0000.0,0007.42,0000.36,0000.11
2023-12-04 15:09:00,SystemResetWarning,0826.2,4.99,000.00,019.0,018.4,000.0,027.2,020.2,15.0,0000.0,0007.73,0000.37,0000.11
2023-12-04 15:10:00,SystemResetWarning,0826.2,4.98,000.00,019.0,018.4,000.0,027.2,020.2,15.0,0000.0,0007.81,0000.41,0000.10
2023-12-04 15:11:00,SystemResetWarning,0826.5,5.01,000.00,019.0,018.4,000.0,027.3,020.2,14.9,0000.0,0007.81,0000.40,0000.10
2023-12-04 15:12:00,SystemResetWarning,0826.6,5.00,000.00,019.0,018.4,000.0,027.3,020.3,14.9,0000.0,0007.36,0000.38,0000.10
2023-12-04 15:13:00,SystemResetWarning,0826.6,5.01,000.00,019.0,018.4,000.0,027.3,020.3,14.8,0000.0,0006.37,0000.42,0000.10
2023-12-04 15:14:00,SystemResetWarning,0826.6,4.99,000.00,019.0,018.4,000.0,027.3,020.3,14.7,0000.0,0006.42,0000.42,0000.10
2023-12-04 15:15:00,SystemResetWarning,0826.6,5.00,000.00,019.1,018.5,000.0,027.3,020.3,14.6,0000.0,0006.14,0000.43,0000.09
2023-12-04 15:16:00,SystemResetWarning,0826.5,5.00,000.00,019.1,018.5,000.0,027.3,020.3,14.4,0000.0,0005.27,0000.42,0000.09
2023-12-04 15:17:00,SystemResetWarning,0826.6,5.00,000.00,019.1,018.5,000.0,027.3,020.3,14.1,0000.0,0003.61,0000.41,0000.09
2023-12-04 15:18:00,SystemResetWarning,0826.3,5.00,000.00,019.1,018.5,000.0,027.3,020.4,14.9,0000.0,0001.83,0000.36,0000.09
2023-12-04 15:19:00,SystemResetWarning,0826.3,5.00,000.00,019.1,018.5,000.0,027.3,020.3,15.6,0000.0,0001.82,0000.33,0000.09
2023-12-04 15:20:00,SystemResetWarning,0826.3,5.01,000.00,019.1,018.5,000.0,027.3,020.4,14.9,0000.0,0001.33,0000.35,0000.09
2023-12-04 15:21:00,SystemResetWarning,0826.2,5.01,000.00,019.1,018.5,000.0,027.3,020.4,14.9,0000.0,0001.19,0000.32,0000.09
2023-12-04 15:22:00,SystemResetWarning,0826.2,5.00,000.00,019.1,018.5,000.0,027.4,020.4,15.4,0000.0,0001.14,0000.30,0000.09
2023-12-04 15:23:00,SystemResetWarning,0826.4,5.00,000.00,019.1,018.5,000.0,027.4,020.4,15.4,0000.0,0001.12,0000.29,0000.09
2023-12-04 15:24:00,SystemResetWarning,0826.4,4.99,000.00,019.2,018.5,000.0,027.4,020.4,15.3,0000.0,0001.02,0000.23,0000.09
2023-12-04 15:25:00,SystemResetWarning,0826.2,5.00,000.00,019.2,018.5,000.0,027.4,020.4,14.4,0000.0,0000.95,0000.21,0000.09
2023-12-04 15:26:00,SystemResetWarning,0826.2,5.00,000.00,019.2,018.5,000.0,027.4,020.4,14.4,0000.0,0000.80,0000.20,0000.09
2023-12-04 15:27:00,SystemResetWarning,0826.3,5.00,000.00,019.2,018.5,000.0,027.4,020.4,14.6,0000.0,0000.76,0000.20,0000.09
2023-12-04 15:28:00,SystemResetWarning,0826.3,5.00,000.00,019.2,018.5,000.0,027.4,020.4,15.3,0000.0,0000.97,0000.22,0000.09
2023-12-04 15:29:00,SystemResetWarning,0826.2,5.00,000.00,019.2,018.5,000.0,027.4,020.4,14.7,0000.0,0000.86,0000.24,0000.09
2023-12-04 15:30:00,SystemResetWarning,0826.3,5.01,000.00,019.2,018.5,000.0,027.4,020.4,15.0,0000.0,0000.65,0000.24,0000.09
2023-12-04 15:31:00,SystemResetWarning,0826.1,5.00,000.00,019.2,018.5,000.0,027.4,020.4,15.2,0000.0,0000.56,0000.21,0000.09
2023-12-04 15:32:00,SystemResetWarning,0826.0,5.00,000.00,019.2,018.5,000.0,027.4,020.4,15.6,0000.0,0000.52,0000.20,0000.09
2023-12-04 15:33:00,SystemResetWarning,0826.2,5.00,000.00,019.2,018.5,000.0,027.4,020.4,15.5,0000.0,0000.59,0000.23,0000.09
2023-12-04 15:34:00,SystemResetWarning,0826.1,5.00,000.00,019.2,018.5,000.0,027.4,020.4,15.7,0000.0,0000.60,0000.24,0000.10
2023-12-04 15:35:00,SystemResetWarning,0826.1,5.00,000.00,019.2,018.5,000.0,027.5,020.4,15.7,0000.0,0002.17,0000.25,0000.10
2023-12-04 15:36:00,SystemResetWarning,0826.2,5.00,000.00,019.2,018.5,000.0,027.5,020.4,15.8,0000.0,0002.29,0000.27,0000.10
2023-12-04 15:37:00,SystemResetWarning,0826.3,5.00,000.00,019.2,018.5,000.0,027.5,020.4,15.8,0000.0,0002.38,0000.28,0000.10
2023-12-04 15:38:00,SystemResetWarning,0826.3,5.00,000.00,019.2,018.5,000.0,027.5,020.4,15.3,0000.0,0002.76,0000.29,0000.10
2023-12-04 15:39:00,SystemResetWarning,0826.3,5.00,000.00,019.2,018.5,000.0,027.5,020.4,14.9,0000.0,0002.54,0000.25,0000.10
2023-12-04 15:40:00,SystemResetWarning,0826.2,5.00,000.00,019.2,018.5,000.0,027.5,020.4,15.2,0000.0,0002.59,0000.27,0000.10
2023-12-04 15:41:00,SystemResetWarning,0826.2,5.00,000.00,019.2,018.5,000.0,027.5,020.4,15.1,0000.0,0002.68,0000.31,0000.10
2023-12-04 15:42:00,SystemResetWarning,0826.1,5.00,000.00,019.2,018.5,000.0,027.5,020.4,15.1,0000.0,0002.70,0000.32,0000.10
2023-12-04 15:43:00,SystemResetWarning,0826.2,5.00,000.00,019.2,018.5,000.0,027.5,020.4,15.1,0000.0,0002.81,0000.34,0000.10
2023-12-04 15:44:00,SystemResetWarning,0826.2,4.99,000.00,019.2,018.5,000.0,027.5,020.4,15.0,0000.0,0002.82,0000.33,0000.10
2023-12-04 15:45:00,SystemResetWarning,0825.9,5.00,000.00,019.2,018.5,000.0,027.5,020.4,15.3,0000.0,0003.05,0000.39,0000.11
2023-12-04 15:46:00,SystemResetWarning,0826.0,5.00,000.00,019.2,018.5,000.0,027.5,020.4,15.4,0000.0,0001.62,0000.42,0000.11
2023-12-04 15:47:00,SystemResetWarning,0826.1,5.00,000.00,019.2,018.5,000.0,027.5,020.4,15.0,0000.0,0001.59,0000.42,0000.11
2023-12-04 15:48:00,SystemResetWarning,0826.0,4.99,000.00,019.2,018.5,000.0,027.5,020.4,15.1,0000.0,0001.50,0000.39,0000.11
2023-12-04 15:49:00,SystemResetWarning,0826.2,5.00,000.00,019.2,018.5,000.0,027.5,020.4,15.2,0000.0,0001.17,0000.39,0000.11
2023-12-04 15:50:00,SystemResetWarning,0826.2,5.00,000.00,019.2,018.5,000.0,027.5,020.4,15.2,0000.0,0001.19,0000.39,0000.11
2023-12-04 15:51:00,SystemResetWarning,0826.4,5.01,000.00,019.2,018.5,000.0,027.5,020.4,15.0,0000.0,0001.12,0000.38,0000.11
2023-12-04 15:52:00,SystemResetWarning,0826.4,5.00,000.00,019.2,018.6,000.0,027.5,020.4,14.9,0000.0,0001.04,0000.35,0000.11
2023-12-04 15:53:00,SystemResetWarning,0826.4,5.00,000.00,019.2,018.6,000.0,027.5,020.4,15.2,0000.0,0001.03,0000.35,0000.11
2023-12-04 15:54:00,SystemResetWarning,0826.6,4.99,000.00,019.2,018.6,000.0,027.5,020.4,15.1,0000.0,0000.92,0000.32,0000.11
2023-12-04 15:55:00,SystemResetWarning,0826.6,5.00,000.00,019.2,018.6,000.0,027.5,020.4,15.1,0000.0,0001.69,0000.31,0000.10
2023-12-04 15:56:00,SystemResetWarning,0826.4,4.99,000.00,019.2,018.6,000.0,027.5,020.5,15.2,0000.0,0001.48,0000.26,0000.10
2023-12-04 15:57:00,SystemResetWarning,0826.5,5.00,000.00,019.3,018.6,000.0,027.5,020.5,15.4,0000.0,0001.31,0000.21,0000.09
2023-12-04 15:58:00,SystemResetWarning,0826.3,5.01,000.00,019.3,018.6,000.0,027.6,020.5,15.3,0000.0,0001.27,0000.20,0000.09
2023-12-04 15:59:00,SystemResetWarning,0826.5,5.00,000.00,019.3,018.6,000.0,027.6,020.5,15.6,0000.0,0002.04,0000.21,0000.10
